Flag for Chile Weather past 2 weeks in Puerto Williams, Chile

Now
39 °F

Scattered showers. Broken clouds.


Feels Like: 27 °F
Forecast: 31 / 40 °F
Wind: 30 mph from Southwest

Location: Ushuaia Aerodrome

Current Time: Aug 30, 2015 at 3:52:29 PM

Latest Report: Aug 30, 2015 at 3:00 PM


Visibility: N/A

Pressure: 29.18 "Hg

Humidity: 87%

Dew point: 36 °F

Location of Puerto WilliamsLocation

Historic Weather in Puerto Williams — Graph

°F

Puerto Williams temperature yesterday

Maximum temperature yesterday: 41 °F (at 2:00 PM)
Minimum temperature yesterday: 36 °F (at 4:00 AM)
Average temperature yesterday: 38 °F

Past Weeks' High & Low Weather Summary

 TemperatureHumidityPressure
High48 °F (Aug 16, 2:00 PM)100% (Aug 15, 3:00 PM)30.21 "Hg (Aug 15, 3:00 PM)
Low23 °F (Aug 17, 10:00 AM)45% (Aug 19, 1:00 PM)28.03 "Hg (Aug 16, 4:00 PM)
Average35 °F81%29.44 "Hg
* Reported Aug 15 2:00 PM — Aug 30 2:00 PM, Puerto Williams, Weather by CustomWeather, © 2015

Note: Actual official high and low records may vary slightly from our data, if they occured in-between our weather recording intervals... More about our weather records

Advertising

Puerto Williams weather history for previous 24 hours

 ConditionsComfort  
Time TempWeatherWind HumidityBarometerVisibility
2:00 PM
Sun, Aug 30
39 °FScattered showers. Scattered clouds.21 mph87%29.18 "HgN/A
1:00 PM39 °FScattered showers. Partly sunny.33 mph81%29.15 "HgN/A
12:00 PM39 °FScattered showers. Scattered clouds.14 mph81%29.18 "HgN/A
11:00 AM39 °FScattered showers. Scattered clouds.6 mph81%29.18 "HgN/A
10:00 AM39 °FScattered showers. Broken clouds.13 mph75%29.18 "HgN/A
9:00 AM37 °FLight rain. Partly sunny.10 mph75%29.15 "HgN/A
8:00 AM36 °FScattered clouds.6 mph87%29.15 "HgN/A
7:00 AM34 °FPartly cloudy.3 mph93%29.12 "HgN/A
6:00 AM34 °FPartly cloudy.2 mph93%29.12 "HgN/A
5:00 AM34 °FPartly cloudy.6 mph93%29.12 "HgN/A
4:00 AM36 °FPartly cloudy.5 mph87%29.12 "HgN/A
3:00 AM36 °FPassing clouds.6 mph93%29.12 "HgN/A
12:00 AM37 °FPassing clouds.6 mph93%29.09 "HgN/A
11:00 PM
Sat, Aug 29
37 °FClear.No wind81%29.09 "Hg10 mi
10:00 PM37 °FClear.No wind87%29.06 "Hg10 mi
9:00 PM39 °FClear.No wind81%29.06 "Hg10 mi
8:00 PM39 °FClear.No wind81%29.06 "Hg10 mi
7:00 PM41 °FClear.No wind76%29.06 "Hg10 mi
6:00 PM39 °FClear.No wind87%29.03 "Hg10 mi
5:00 PM41 °FScattered clouds.No wind81%29.03 "HgN/A
4:00 PM41 °FScattered clouds.No wind87%29.03 "HgN/A
3:00 PM41 °FPassing clouds.No wind81%29.03 "HgN/A
Weather by CustomWeather, © 2015

See weather overviewHow to use our weather pages